Location: Czu?�w
(50.1404°N, 18.9919°E)
Time: 03:31:04
(UTC+00:00)

Ariane Rocket - Pass Details

Date: 27 October 2020
Orbit: 759 x 771 km, 98.7° (Epoch: 27 November)

Event Time Altitude Azimuth Distance (km) Brightness Sun altitude
Exits shadow 17:27:37 31° 56° (NE) 1,329 3.8 -19.6°
Drops below altitude 10° 17:31:48 10° 1° (N) 2,325 5.5 -20.2°
Sets 17:34:19 0° 352° (N) 3,256 6.4 -20.6°
